Location: Zihuatanejo
(17.6330°N, 101.5500°W)
Time: 09:04:37
(UTC-05:00)

Hubble Space Telescope - Visible Passes

Search period start: 21 March 2019 00:00
Search period end: 31 March 2019 00:00
Orbit: 537 x 540 km, 28.5° (Epoch: 21 March)

Date Brightness Start Highest point End Pass type
(mag) Time Alt. Az. Time Alt. Az. Time Alt. Az.
21 Mar 2.6 06:47:30 15° SSW 06:47:37 15° SSW 06:50:06 10° S visible
21 Mar 1.5 20:24:35 10° SW 20:28:26 37° SSE 20:31:58 12° E visible
21 Mar 3.1 22:05:35 10° W 22:07:21 23° W 22:07:21 23° W visible
22 Mar 3.2 06:38:10 10° SSW 06:38:10 10° SSW 06:38:19 10° SSW visible
22 Mar 1.1 20:13:54 10° SW 20:17:55 52° SSE 20:21:57 10° ENE visible
22 Mar 2.6 21:55:18 10° W 21:57:55 30° WNW 21:57:55 30° WNW visible
23 Mar 2.3 21:45:03 10° W 21:48:24 30° NNW 21:48:24 30° NNW visible
24 Mar 2.4 21:34:52 10° WNW 21:38:23 26° NNW 21:38:49 26° N visible
25 Mar 2.6 21:24:41 10° WNW 21:28:01 23° NNW 21:29:10 20° NNE visible
26 Mar 2.8 21:14:30 10° WNW 21:17:40 21° N 21:19:27 16° NNE visible
27 Mar 2.9 21:04:19 10° NW 21:07:19 19° N 21:09:41 13° NNE visible
28 Mar 2.9 20:54:06 10° NW 20:56:59 18° N 20:59:52 10° NE visible
29 Mar 2.9 20:43:50 10° NW 20:46:40 18° N 20:49:29 10° NE visible
29 Mar 3.9 22:25:11 10° NW 22:25:22 11° NW 22:25:22 11° NW visible
30 Mar 2.9 20:33:30 10° NW 20:36:20 18° N 20:39:10 10° NE visible
30 Mar 3.6 22:14:38 10° NW 22:15:31 15° NW 22:15:31 15° NW visible
